Weather observations for the past three days for
Kremmling, Mc Elroy Airfield
Imperial (Metric)
Date Time (mdt) Wind (mph) Vis. (mi.) Weather Sky Cond. Temperature (ºF) Relative Humidity Wind Chill (°F) Heat Index (°F) Pressure Precipitation (in)
Air Dwpt 6 hour altimeter (in) sea level (mb) 1 hr 3 hr 6 hr
Max. Min.
14 00:35 Calm 10.00 Fair CLR 59 37.4 45% 30.29 0.0
14 00:15 Calm 10.00 Fair CLR 59 39.2 48% 30.29 0.0
13 23:55 NE 3 10.00 Fair CLR 60.8 39.2 45% 30.29 0.0
13 23:35 Calm 10.00 Fair CLR 62.6 35.6 37% 30.29 0.0
13 23:15 E 6 10.00 Fair CLR 62.6 35.6 37% 30.29 0.0
13 22:55 Calm 10.00 Fair CLR 66.2 35.6 32% 30.28 0.0
13 22:35 Calm 10.00 Fair CLR 68 35.6 30% 30.29 0.0
13 22:15 Calm 10.00 Fair CLR 69.8 33.8 27% 30.28 0.0
13 21:55 Calm 10.00 Fair CLR 71.6 33.8 25% 30.27 0.0
13 21:35 E 9 10.00 Fair CLR 71.6 33.8 25% 30.27 0.0
13 21:15 SW 7 10.00 Partly Cloudy SCT120 73.4 32 22% 30.26 0.0
13 20:55 W 7 10.00 Partly Cloudy SCT120 75.2 30.2 19% 76 30.25 0.0
13 20:35 W 10 G 18 10.00 Fair CLR 75.2 32 21% 76 30.26 0.0
13 20:15 W 6 10.00 Fair CLR 73.4 33.8 23% 30.26 0.0
13 19:55 SW 8 10.00 Fair CLR 75.2 32 21% 76 30.25 0.0
13 19:35 W 9 10.00 Fair CLR 75.2 37.4 25% 77 30.24 0.0
13 19:15 Calm 10.00 Fair CLR 78.8 35.6 21% 78 30.23 0.0
13 18:55 SW 5 10.00 Fair CLR 78.8 33.8 20% 78 30.22 0.0
13 18:35 W 12 10.00 Fair CLR 86 33.8 15% 83 30.22 0.0
13 18:15 W 9 10.00 Fair CLR 80.6 30.2 16% 79 30.22 0.0
13 17:55 W 8 10.00 Fair CLR 82.4 32 16% 80 30.24 0.0
13 17:35 W 8 10.00 Fair CLR 80.6 30.2 16% 79 30.24 0.0
13 17:15 SW 12 G 18 10.00 Fair CLR 87.8 33.8 15% 84 30.25 0.0
13 16:55 SW 10 G 18 10.00 Fair CLR 87.8 32 13% 84 30.25 0.0
13 16:35 SW 12 G 21 10.00 Fair CLR 87.8 32 13% 84 30.26 0.0
13 16:15 W 18 G 23 10.00 Fair CLR 87.8 32 13% 84 30.26 0.0
13 15:55 W 16 G 21 10.00 Fair CLR 87.8 30.2 13% 84 30.27 0.0
13 15:35 W 17 G 28 10.00 Fair CLR 87.8 30.2 13% 84 30.27 0.0
13 15:15 SW 10 10.00 Fair CLR 87.8 32 13% 84 30.28 0.0
13 14:55 W 14 G 31 10.00 Fair CLR 87.8 30.2 13% 84 30.28 0.0
13 14:35 W 21 G 31 10.00 Fair and Breezy CLR 87.8 30.2 13% 84 30.28 0.0
13 14:15 W 9 10.00 Fair CLR 84.2 32 15% 81 30.28 0.0
13 13:55 SW 12 10.00 Fair CLR 86 32 14% 83 30.29 0.0
13 13:35 SW 13 G 22 10.00 Fair CLR 87.8 33.8 15% 84 30.3 0.0
13 13:15 SW 14 G 26 10.00 Fair CLR 84.2 32 15% 81 30.3 0.0
13 12:55 SW 14 G 23 10.00 Fair CLR 86 32 14% 83 30.3 0.0
13 12:35 SW 12 G 22 10.00 Fair CLR 86 33.8 15% 83 30.31 0.0
13 12:15 SW 8 10.00 Fair CLR 80.6 37.4 21% 79 30.31 0.0
13 11:55 SE 3 10.00 Fair CLR 78.8 42.8 28% 78 30.32 0.0
13 11:35 SE 5 10.00 Fair CLR 75.2 42.8 31% 77 30.32 0.0
13 11:15 S 3 10.00 Fair CLR 73.4 44.6 36% 30.33 0.0
13 10:55 E 3 10.00 Fair CLR 69.8 44.6 40% 30.34 0.0
13 10:35 Calm 10.00 Fair CLR 68 44.6 43% 30.34 0.0
13 10:15 Calm 10.00 Fair CLR 68 44.6 43% 30.35 0.0
13 09:55 Calm 10.00 Fair CLR 62.6 42.8 49% 30.35 0.0
13 09:35 Calm 10.00 Fair CLR 60.8 42.8 52% 30.36 0.0
13 09:15 Calm 10.00 Fair CLR 59 42.8 55% 30.36 0.0
13 08:55 Calm 10.00 Fair CLR 59 41 51% 30.36 0.0
13 08:35 Calm 10.00 Fair CLR 55.4 41 59% 30.36 0.0
13 08:15 Calm 10.00 Fair CLR 53.6 41 63% 30.36 0.0
13 07:55 Calm 10.00 Fair CLR 50 42.8 76% 30.36 0.0
13 07:35 Calm 10.00 Fair CLR 48.2 41 76% 30.35 0.0
13 07:15 Calm 10.00 Fair CLR 48.2 41 76% 30.34 0.0
13 06:55 Calm 10.00 Fair CLR 46.4 41 82% 30.34 0.0
13 06:35 Calm 10.00 Fair CLR 42.8 37.4 81% 30.34 0.0
13 06:15 Calm 10.00 Fair CLR 41 37.4 87% 30.33 0.0
13 05:55 Calm 10.00 Fair CLR 41 37.4 87% 30.32 0.0
13 05:35 Calm 10.00 Fair CLR 41 35.6 81% 30.32 0.0
13 05:15 Calm 10.00 Fair CLR 41 35.6 81% 30.31 0.0
13 04:55 Calm 10.00 Fair CLR 41 35.6 81% 30.31 0.0
13 04:35 Calm 10.00 Fair CLR 42.8 39.2 87% 30.3 0.0
13 04:15 Calm 10.00 Fair CLR 42.8 37.4 81% 30.3 0.0
13 03:55 Calm 10.00 Fair CLR 44.6 39.2 81% 30.3 0.0
13 03:35 Calm 10.00 Fair CLR 44.6 41 87% 30.3 0.0
13 03:15 Calm 10.00 Fair CLR 44.6 39.2 81% 30.3 0.0
13 02:55 Calm 10.00 Fair CLR 44.6 41 87% 30.29 0.0
13 02:35 Calm 10.00 Fair CLR 44.6 39.2 81% 30.29 0.0
13 02:15 Calm 10.00 Fair CLR 48.2 41 76% 30.29 0.0
13 01:55 Calm 10.00 Fair CLR 48.2 41 76% 30.29 0.0
13 01:35 Calm 10.00 Fair CLR 48.2 42.8 82% 30.3 0.0
13 01:15 Calm 10.00 Fair CLR 48.2 42.8 82% 30.29 0.0
13 00:55 Calm 10.00 Fair CLR 48.2 41 76% 30.29 0.0
13 00:35 Calm 10.00 Fair CLR 50 42.8 76% 30.29 0.0
13 00:15 Calm 10.00 Fair CLR 50 42.8 76% 30.29 0.0
12 23:55 Calm 10.00 Fair CLR 53.6 44.6 72% 30.3 0.0
12 23:35 Calm 10.00 Fair CLR 53.6 42.8 67% 30.3 0.0
12 23:15 Calm 10.00 Fair CLR 55.4 42.8 63% 30.3 0.0
12 22:55 SE 3 10.00 Fair CLR 55.4 42.8 63% 30.3 0.0
12 22:35 Calm 10.00 Fair CLR 55.4 41 59% 30.29 0.0
12 22:15 Calm 10.00 Fair CLR 55.4 42.8 63% 30.29 0.0
12 21:55 Calm 10.00 Fair CLR 59 41 51% 30.29 0.0
12 21:35 S 3 10.00 Fair CLR 60.8 39.2 45% 30.28 0.0
12 21:15 Calm 10.00 Fair CLR 60.8 41 48% 30.28 0.0
12 20:55 SE 5 10.00 Fair CLR 60.8 39.2 45% 30.26 0.0
12 20:35 N 3 10.00 Fair CLR 68 39.2 35% 30.26 0.0
12 20:15 Calm 10.00 Fair CLR 68 37.4 33% 30.27 0.0
12 19:55 N 9 G 18 10.00 Fair CLR 69.8 39.2 33% 30.27 0.0
12 19:35 N 13 G 18 10.00 Fair CLR 73.4 39.2 29% 30.26 0.0
12 19:15 N 13 G 22 10.00 Partly Cloudy SCT120 73.4 39.2 29% 30.24 0.0
12 18:55 W 13 G 31 10.00 Mostly Cloudy BKN120 75.2 35.6 24% 76 30.26 0.0
12 18:35 W 25 G 31 10.00 Fair and Breezy CLR 78.8 35.6 21% 78 30.24 0.0
12 18:15 W 16 G 25 10.00 Partly Cloudy SCT120 80.6 37.4 21% 79 30.24 0.0
12 17:55 W 13 G 21 10.00 Fair CLR 80.6 35.6 20% 79 30.24 0.0
12 17:35 W 14 G 20 10.00 Fair CLR 80.6 35.6 20% 79 30.24 0.0
12 17:15 W 16 G 22 10.00 Fair CLR 80.6 37.4 21% 79 30.24 0.0
12 16:55 W 21 G 25 10.00 Partly Cloudy and Breezy SCT120 78.8 37.4 23% 78 30.24 0.0
12 16:35 W 16 G 28 10.00 Partly Cloudy SCT120 78.8 37.4 23% 78 30.25 0.0
12 16:15 SW 6 10.00 Fair CLR 80.6 37.4 21% 79 30.25 0.0
12 15:55 W 13 G 23 10.00 Fair CLR 80.6 37.4 21% 79 30.26 0.0
12 15:35 W 10 G 17 10.00 Partly Cloudy SCT120 77 37.4 24% 77 30.27 0.0
12 15:15 SW 16 G 28 10.00 Partly Cloudy SCT110 77 37.4 24% 77 30.27 0.0
12 14:55 SW 21 G 31 10.00 Thunderstorm in Vicinity and Breezy SCT110 73.4 39.2 29% 30.27 0.0
12 14:35 W 8 G 18 10.00 Partly Cloudy SCT110 78.8 37.4 23% 78 30.25 0.0
12 14:15 NW 12 G 16 10.00 Mostly Cloudy BKN110 78.8 37.4 23% 78 30.25 0.0
12 13:55 NW 5 10.00 Mostly Cloudy BKN110 78.8 37.4 23% 78 30.25 0.0
12 13:35 Calm 10.00 Thunderstorm in Vicinity BKN100 BKN120 80.6 37.4 21% 79 30.26 0.0
12 13:15 NE 3 10.00 Partly Cloudy SCT100 SCT120 78.8 39.2 24% 78 30.26 0.0
12 12:55 N 3 10.00 Partly Cloudy SCT110 78.8 37.4 23% 78 30.27 0.0
12 12:35 N 5 10.00 Partly Cloudy SCT110 77 37.4 24% 77 30.28 0.0
12 12:15 NE 5 10.00 Mostly Cloudy BKN110 75.2 37.4 25% 77 30.29 0.0
12 11:55 Calm 10.00 Mostly Cloudy BKN110 75.2 41 29% 77 30.29 0.0
12 11:35 Calm 10.00 Mostly Cloudy BKN110 73.4 41 31% 30.29 0.0
12 11:15 Calm 10.00 Partly Cloudy SCT100 73.4 41 31% 30.3 0.0
12 10:55 Calm 10.00 Fair CLR 71.6 41 33% 30.3 0.0
12 10:35 N 5 10.00 Fair CLR 68 37.4 33% 30.31 0.0
12 10:15 Calm 10.00 Fair CLR 66.2 41 40% 30.31 0.0
12 09:55 Calm 10.00 Fair CLR 60.8 37.4 42% 30.32 0.0
12 09:35 Calm 10.00 Fair CLR 59 39.2 48% 30.32 0.0
12 09:15 Calm 10.00 Fair CLR 59 39.2 48% 30.32 0.0
12 08:55 Calm 10.00 Fair CLR 57.2 39.2 51% 30.32 0.0
12 08:35 Calm 10.00 Fair CLR 53.6 37.4 54% 30.33 0.0
12 08:15 Calm 10.00 Fair CLR 53.6 39.2 58% 30.33 0.0
12 07:55 Calm 10.00 Fair CLR 50 37.4 62% 30.33 0.0
12 07:35 Calm 10.00 Fair CLR 48.2 39.2 71% 30.33 0.0
12 07:15 Calm 10.00 Fair CLR 48.2 41 76% 30.33 0.0
12 06:55 Calm 10.00 Fair CLR 44.6 41 87% 30.33 0.0
12 06:35 Calm 10.00 Fair CLR 42.8 37.4 81% 30.32 0.0
12 06:15 Calm 10.00 Fair CLR 41 37.4 87% 30.32 0.0
12 05:55 SE 3 10.00 Fair CLR 39.2 35.6 87% 30.32 0.0
12 05:35 Calm 10.00 Fair CLR 41 35.6 81% 30.31 0.0
12 05:15 Calm 10.00 Fair CLR 41 35.6 81% 30.31 0.0
12 04:55 Calm 10.00 Fair CLR 41 37.4 87% 30.31 0.0
12 04:35 Calm 10.00 Fair CLR 41 35.6 81% 30.3 0.0
12 04:15 Calm 10.00 Fair CLR 42.8 37.4 81% 30.3 0.0
12 03:55 Calm 10.00 Fair CLR 44.6 37.4 76% 30.29 0.0
12 03:35 Calm 10.00 Partly Cloudy SCT110 42.8 37.4 81% 30.29 0.0
12 03:15 Calm 10.00 Mostly Cloudy BKN110 44.6 41 87% 30.28 0.0
12 02:55 Calm 10.00 Fair CLR 44.6 39.2 81% 30.28 0.0
12 02:35 Calm 10.00 Fair CLR 44.6 39.2 81% 30.27 0.0
12 02:15 Calm 10.00 Fair CLR 44.6 37.4 76% 30.27 0.0
12 01:55 Calm 10.00 Fair CLR 48.2 41 76% 30.27 0.0
12 01:35 Calm 10.00 Fair CLR 48.2 41 76% 30.26 0.0
12 01:15 Calm 10.00 Fair CLR 46.4 41 82% 30.26 0.0
12 00:55 Calm 10.00 Fair CLR 48.2 39.2 71% 30.26 0.0
12 00:35 Calm 10.00 Partly Cloudy SCT110 48.2 41 76% 30.25 0.0
12 00:15 Calm 10.00 Partly Cloudy SCT110 50 41 71% 30.24 0.0
11 23:55 Calm 10.00 Fair CLR 50 42.8 76% 30.24 0.0
11 23:35 Calm 10.00 Fair CLR 53.6 41 63% 30.24 0.0
11 23:15 Calm 10.00 Fair CLR 50 39.2 67% 30.24 0.0
11 22:55 Calm 10.00 Fair CLR 53.6 41 63% 30.24 0.0
11 22:35 N 5 10.00 Fair CLR 55.4 41 59% 30.24 0.0
11 22:15 Calm 10.00 Fair CLR 59 41 51% 30.24 0.0
11 21:55 Calm 10.00 Fair CLR 59 39.2 48% 30.23 0.0
11 21:35 W 3 10.00 Fair CLR 60.8 37.4 42% 30.22 0.0
11 21:15 W 5 10.00 Fair CLR 60.8 37.4 42% 30.22 0.0
11 20:55 W 5 10.00 Fair CLR 68 37.4 33% 30.21 0.0
11 20:35 NW 7 10.00 Fair CLR 68 35.6 30% 30.2 0.0
11 20:15 N 7 10.00 Fair CLR 69.8 37.4 31% 30.19 0.0
11 19:35 NW 8 10.00 Fair CLR 73.4 35.6 25% 30.18 0.0
11 19:15 NW 9 10.00 Fair CLR 77 33.8 21% 77 30.18 0.0
11 18:55 W 7 10.00 Fair CLR 78.8 33.8 20% 78 30.17 0.0
11 18:35 NW 10 10.00 Fair CLR 78.8 33.8 20% 78 30.17 0.0
11 18:15 NW 9 G 16 10.00 Fair CLR 78.8 33.8 20% 78 30.17 0.0
11 17:55 NW 7 10.00 Fair CLR 78.8 32 18% 78 30.17 0.0
11 17:35 W 8 10.00 Fair CLR 78.8 32 18% 78 30.17 0.0
11 17:15 NW 8 G 16 10.00 Fair CLR 80.6 33.8 18% 79 30.17 0.0
11 16:55 W 8 10.00 Fair CLR 80.6 33.8 18% 79 30.17 0.0
11 16:35 NW 9 10.00 Partly Cloudy SCT100 80.6 35.6 20% 79 30.18 0.0
11 16:15 SW 3 10.00 Partly Cloudy SCT100 SCT120 77 37.4 24% 77 30.18 0.0
11 15:55 W 10 G 16 10.00 Mostly Cloudy BKN100 BKN120 80.6 39.2 23% 79 30.19 0.0
11 15:35 S 3 10.00 Partly Cloudy SCT100 77 37.4 24% 77 30.2 0.0
11 14:55 Calm 10.00 Overcast OVC100 75.2 37.4 25% 77 30.21 0.0
11 13:35 W 3 10.00 Fair CLR 78.8 41 26% 78 30.24 0.0
11 12:55 NE 5 10.00 Fair CLR 75.2 42.8 31% 77 30.25 0.0
11 12:35 Calm 10.00 Fair CLR 73.4 42.8 33% 30.26 0.0
11 12:15 NW 3 10.00 Fair CLR 73.4 42.8 33% 30.26 0.0
11 11:55 Calm 10.00 Fair CLR 71.6 44.6 38% 30.27 0.0
11 11:35 Calm 10.00 Fair CLR 69.8 44.6 40% 30.28 0.0
11 11:20 Calm 10.00 Fair CLR 68 44.6 43% 30.28 0.0
11 11:15 E 5 10.00 Fair CLR 68 44.6 43% 30.28 0.0
11 10:35 E 3 10.00 Fair CLR 64.4 46.4 52% 30.29 0.0
11 10:15 Calm 10.00 Fair CLR 60.8 46.4 59% 30.3 0.0
11 09:55 Calm 10.00 Fair CLR 59 46.4 63% 30.31 0.0
11 09:35 Calm 10.00 Fair CLR 59 46.4 63% 30.31 0.0
11 09:15 Calm 10.00 Fair CLR 55.4 44.6 67% 30.31 0.0
11 08:55 Calm 10.00 Fair CLR 55.4 44.6 67% 30.32 0.0
11 08:37 Calm 10.00 Fair CLR 53.6 44.6 72% 30.32 0.0
11 08:15 Calm 10.00 Fair CLR 50 42.8 76% 30.32 0.0
11 07:55 Calm 10.00 Fair CLR 50 44.6 82% 30.32 0.0
11 07:35 Calm 10.00 Fair CLR 48.2 44.6 87% 30.32 0.0
11 07:15 Calm 10.00 Fair CLR 46.4 46.4 100% 30.32 0.0
11 06:55 Calm 10.00 Partly Cloudy SCT002 44.6 44.6 100% 30.32 0.0
11 06:35 Calm 10.00 Fair CLR 42.8 42.8 100% 30.32 0.0
11 06:15 Calm 10.00 Fair CLR 41 41 100% 30.31 0.0
11 05:55 Calm 10.00 Fair CLR 41 41 100% 30.31 0.0
11 05:35 Calm 10.00 Fair CLR 41 41 100% 30.3 0.0
11 05:15 SE 5 10.00 Fair CLR 41 41 100% 38 30.3 0.0
11 04:55 Calm 10.00 Fair CLR 41 41 100% 30.29 0.0
11 04:35 Calm 10.00 Fair CLR 42.8 42.8 100% 30.29 0.0
11 04:15 Calm 10.00 Fair CLR 42.8 42.8 100% 30.29 0.0
11 03:55 Calm 10.00 Fair CLR 44.6 42.8 93% 30.29 0.0
11 03:35 E 3 10.00 Fair CLR 44.6 42.8 93% 30.28 0.0
11 03:15 Calm 10.00 Fair CLR 44.6 44.6 100% 30.27 0.0
11 02:55 Calm 10.00 Fair CLR 46.4 44.6 93% 30.27 0.0
11 02:35 Calm 10.00 Fair CLR 46.4 44.6 93% 30.27 0.0
11 02:15 Calm 10.00 Fair CLR 46.4 46.4 100% 30.27 0.0
11 01:55 Calm 10.00 Fair CLR 48.2 44.6 87% 30.26 0.0
11 01:35 Calm 10.00 Fair CLR 48.2 44.6 87% 30.27 0.0
11 01:15 Calm 10.00 Fair CLR 48.2 44.6 87% 30.26 0.0
Date Time (mdt) Wind (mph) Vis. (mi.) Weather Sky Cond. Air Dwpt Max. Min. Relative Humidity Wind Chill (°F) Heat Index (°F) altimeter (in) sea level (mb) 1 hr 3 hr 6 hr
6 hour
Temperature (ºF) Pressure Precipitation (in)